Location: Newark
(55.5030°N, 22.7200°E)
Time: 04:52:42
(UTC+00:00)

Explorer 7 - Visible Passes

Search period start: 06 June 2020 00:00
Search period end: 16 June 2020 00:00
Orbit: 485 x 679 km, 50.3° (Epoch: 05 June)

Date Brightness Start Highest point End Pass type
(mag) Time Alt. Az. Time Alt. Az. Time Alt. Az.
06 Jun 8.4 00:35:16 10° WSW 00:38:26 19° SW 00:41:29 10° S visible
06 Jun 7.4 21:18:40 10° WSW 21:23:15 45° S 21:27:38 10° ESE visible
06 Jun 7.7 22:59:06 10° W 23:03:20 34° SSW 23:07:22 10° SE visible
07 Jun 8.7 00:40:32 10° WSW 00:42:55 14° SW 00:45:14 10° S visible
07 Jun 7.4 21:23:22 10° WSW 21:27:57 45° S 21:32:19 10° ESE visible
07 Jun 7.9 23:03:55 10° W 23:07:57 28° SSW 23:11:46 10° SE visible
08 Jun 7.5 21:28:05 10° W 21:32:38 42° S 21:36:58 10° ESE visible
08 Jun 8.2 23:08:49 10° W 23:12:31 23° SSW 23:15:41 12° SSE visible
09 Jun 7.7 21:32:51 10° W 21:37:18 38° SSW 21:41:33 10° SE visible
09 Jun 8.5 23:13:52 10° WSW 23:17:01 18° SW 23:18:37 15° S visible
10 Jun 7.9 21:37:38 10° W 21:41:56 33° SSW 21:45:51 11° SE visible
10 Jun 8.8 23:19:14 10° WSW 23:21:29 13° SW 23:22:05 13° SSW visible
11 Jun 8.1 21:42:28 10° W 21:46:31 27° SSW 21:49:32 14° SSE visible
12 Jun 7.7 20:06:37 10° W 20:11:13 42° SSW 20:15:38 10° ESE visible
12 Jun 8.5 21:47:24 10° W 21:51:05 22° SSW 21:53:24 15° S visible
13 Jun 7.9 20:11:23 10° W 20:15:52 37° SSW 20:20:12 10° SE visible
13 Jun 8.8 21:52:29 10° WSW 21:55:35 17° SW 21:57:22 14° S visible
14 Jun 8.1 20:16:11 10° W 20:20:29 32° SSW 20:24:40 10° SE visible
14 Jun 9.1 21:57:58 10° WSW 22:00:02 13° SW 22:01:26 11° SSW visible
15 Jun 8.4 20:21:02 10° W 20:25:05 26° SSW 20:29:00 10° SSE visible
